Lapse_Rate
7.8 7.9 8.1 8.3 8.4 8.4 8.3 8.1 8.0 7.9 7.7 7.3 7.0 6.6 6.4 6.2 6.2 6.3 6.1 5.9 5.8 5.6 5.5 5.4 5.5 5.6 5.5 5.4 5.4 5.4 5.5 5.6 5.7 5.7 5.6 5.5 5.3 5.4 5.9 6.3 6.2 6.0 5.7
8.0 7.7 8.0 8.1 8.3 8.6 8.6 8.3 8.0 7.9 7.7 7.5 7.4 7.1 6.8 6.5 6.3 6.2 6.1 5.9 5.8 5.7 5.6 5.6 5.6 5.7 5.6 5.5 5.5 5.5 5.6 5.7 5.6 5.5 5.2 5.3 5.4 5.6 5.8 5.9 5.9 5.8 5.8
7.7 7.7 7.8 8.0 8.2 8.3 8.5 8.5 8.2 7.9 7.8 7.6 7.4 7.3 7.1 6.8 6.5 6.3 6.1 6.0 5.9 5.8 5.8 5.8 5.7 5.7 5.6 5.4 5.5 5.5 5.6 5.7 5.3 5.4 5.2 5.2 5.4 5.8 5.7 5.8 5.7 5.6 5.4
7.8 7.8 7.9 7.8 8.0 8.1 8.3 8.4 8.4 8.2 7.9 7.7 7.5 7.2 7.1 7.0 6.6 6.3 6.1 6.0 6.0 6.0 6.0 5.9 5.8 5.7 5.7 5.6 5.7 5.5 5.5 5.7 5.6 5.4 5.3 5.1 5.4 5.9 5.5 5.4 5.4 5.5 5.1
7.9 7.9 7.8 7.7 7.9 7.9 8.0 8.2 8.3 8.2 8.0 7.7 7.5 7.3 7.2 7.0 6.7 6.4 6.3 6.1 6.0 6.0 5.9 6.0 5.9 5.8 5.6 5.6 5.6 5.5 5.5 5.5 5.7 5.4 5.3 5.3 5.6 5.8 5.5 5.2 5.3 5.5 5.4
7.8 7.8 7.7 7.6 7.7 7.7 7.8 7.9 8.1 8.2 8.1 7.8 7.6 7.4 7.2 7.0 6.9 6.6 6.4 6.3 6.2 6.1 6.0 6.0 5.9 5.8 5.6 5.6 5.6 5.5 5.6 5.3 5.4 5.4 5.4 5.2 5.6 5.5 5.2 5.4 5.2 5.3 5.2
7.8 7.7 7.8 7.7 7.6 7.6 7.6 7.7 7.8 7.9 8.0 7.9 7.8 7.6 7.4 7.1 7.0 6.8 6.6 6.4 6.1 6.0 6.0 5.9 5.8 5.8 5.7 5.6 5.6 5.4 5.4 5.2 5.3 5.3 5.4 5.6 5.6 5.5 5.3 5.4 5.6 5.4 5.3
7.9 8.0 7.6 7.6 7.6 7.6 7.5 7.5 7.5 7.5 7.6 7.7 7.8 7.7 7.6 7.5 7.2 7.0 6.8 6.6 6.4 6.2 6.1 5.9 5.8 5.8 5.7 5.8 5.9 5.7 5.5 5.3 5.3 5.0 5.3 5.4 5.6 5.6 5.5 5.5 5.4 5.3 5.3
7.8 7.8 7.7 7.4 7.5 7.6 7.6 7.5 7.4 7.4 7.4 7.4 7.5 7.7 7.7 7.6 7.4 7.3 7.0 6.8 6.7 6.6 6.4 6.2 6.2 6.1 5.9 5.9 6.1 6.0 5.8 5.6 5.5 5.1 5.3 5.2 5.5 5.7 5.4 5.6 5.4 5.4 5.6
7.2 7.4 7.7 7.7 7.7 7.6 7.7 7.7 7.6 7.5 7.4 7.3 7.4 7.5 7.6 7.6 7.6 7.4 7.3 7.1 6.9 6.7 6.6 6.4 6.3 6.1 6.0 6.0 6.0 6.1 6.1 5.8 5.7 5.6 5.6 5.5 5.4 5.5 5.2 5.3 5.4 5.6 5.8
7.4 7.8 7.7 7.4 7.4 7.5 7.5 7.6 7.5 7.5 7.4 7.3 7.2 7.3 7.5 7.6 7.6 7.6 7.4 7.3 7.2 7.0 6.9 6.8 6.5 6.3 6.1 6.0 6.1 6.2 6.4 6.1 6.0 6.0 6.0 5.9 5.5 5.4 5.3 5.2 5.3 5.5 5.6
6.6 6.9 7.5 8.0 7.7 7.0 7.0 7.2 7.3 7.4 7.5 7.5 7.3 7.3 7.3 7.4 7.5 7.6 7.6 7.5 7.4 7.3 7.2 7.0 6.9 6.6 6.4 6.2 6.2 6.2 6.5 6.3 6.2 6.1 6.2 6.1 5.8 5.6 5.3 5.1 5.3 5.3 5.5
6.6 6.6 6.6 7.0 7.1 6.9 7.1 6.9 7.0 7.7 7.6 7.7 7.7 7.5 7.3 7.3 7.4 7.5 7.6 7.7 7.6 7.6 7.5 7.3 7.1 6.9 6.7 6.4 6.3 6.3 6.4 6.4 6.3 6.2 6.3 6.3 6.2 5.8 5.5 5.3 5.2 5.2 5.2
6.5 6.5 6.6 6.4 6.5 7.0 7.0 7.1 7.0 7.2 7.5 7.6 7.7 7.8 7.6 7.6 7.6 7.4 7.6 7.7 7.7 7.8 7.7 7.6 7.4 7.1 7.0 6.8 6.5 6.4 6.5 6.6 6.4 6.3 6.3 6.3 6.4 6.0 5.7 5.4 5.3 5.0 5.1
6.2 6.1 6.2 6.3 6.4 6.5 6.8 6.8 6.8 6.9 7.0 7.1 7.7 7.6 7.8 7.8 7.6 7.3 7.3 7.6 7.8 7.8 7.9 7.7 7.5 7.4 7.2 7.1 6.9 6.8 6.7 6.7 6.8 6.7 6.7 6.5 6.3 6.1 5.9 5.8 5.4 5.2 4.9
6.4 6.2 6.0 6.0 6.1 6.3 6.5 6.6 6.6 6.7 7.0 7.1 7.1 7.5 7.6 7.9 8.3 7.6 7.4 7.6 7.7 7.8 7.9 7.7 7.5 7.5 7.4 7.4 7.3 6.9 6.9 7.1 7.1 7.1 6.9 6.7 6.4 6.2 6.1 6.1 5.9 5.5 5.4
6.4 6.1 5.9 5.8 5.6 5.7 5.9 6.2 6.4 6.3 6.3 6.7 6.9 7.2 7.6 7.7 7.8 8.2 7.8 7.2 7.7 7.9 7.8 7.8 7.7 7.5 7.4 7.2 7.5 7.4 7.0 7.4 7.4 7.4 7.2 6.9 6.7 6.5 6.1 6.2 6.4 6.0 5.8
6.1 6.0 5.8 5.7 5.8 5.8 5.4 5.7 6.1 6.3 6.2 6.3 6.5 6.7 7.1 7.2 7.6 7.5 7.9 7.9 7.7 7.8 7.7 7.7 7.8 7.3 7.5 7.2 7.2 7.3 6.9 6.9 7.4 7.5 7.4 7.3 6.9 6.7 6.6 6.3 6.3 6.4 6.2
6.1 6.0 6.0 6.0 5.8 6.0 5.9 5.6 5.4 5.8 6.0 6.1 6.4 6.5 6.6 7.0 7.0 7.1 7.1 7.2 7.4 7.5 7.6 7.7 7.4 7.5 7.4 7.4 7.3 6.9 6.8 6.8 7.1 7.5 7.7 7.5 7.3 6.8 6.7 6.4 6.4 6.3 6.5
5.7 5.9 5.9 6.0 6.2 6.1 6.1 6.2 6.0 5.9 5.8 5.7 6.0 6.3 6.5 6.8 7.1 7.1 6.6 6.8 6.8 6.8 7.0 7.2 6.9 7.0 7.4 7.7 7.3 6.8 6.4 6.5 6.5 7.0 7.6 7.7 7.4 7.1 6.8 6.7 6.5 6.5 6.4
6.0 5.7 6.1 6.5 6.6 6.7 6.7 6.5 6.3 6.2 5.9 5.9 5.7 6.0 6.3 6.3 6.5 6.8 6.6 6.6 6.8 6.7 6.7 7.0 6.7 6.6 7.0 7.1 7.3 6.7 6.7 6.5 6.2 6.2 6.7 7.3 7.7 7.3 7.0 6.9 6.6 6.6 6.7
6.4 6.3 6.1 6.4 6.7 6.7 6.6 6.4 6.4 6.2 6.2 6.2 6.0 5.7 5.9 6.4 6.4 6.3 6.4 6.3 6.4 6.7 6.6 6.4 6.7 6.4 6.8 6.8 7.1 7.0 6.7 6.7 6.6 6.5 6.6 6.6 7.1 7.5 7.4 7.1 6.7 6.4 6.5
6.1 6.0 6.0 6.3 6.2 6.1 6.2 6.3 6.2 6.0 5.9 5.8 5.8 6.2 6.0 5.9 6.4 6.2 6.6 6.6 6.0 6.5 6.4 6.5 6.3 6.3 6.3 6.6 6.9 6.7 6.3 6.2 6.6 6.7 6.7 6.6 6.6 7.0 7.3 7.1 7.1 6.5 6.4
5.7 5.8 5.7 5.5 5.6 5.7 5.8 5.8 5.7 6.0 6.2 6.0 6.1 6.2 6.1 6.0 5.6 6.3 6.5 6.4 6.2 6.7 6.9 6.8 6.8 6.1 5.7 5.9 6.0 6.0 5.9 5.9 5.6 5.7 5.9 6.2 6.2 6.6 6.7 6.7 6.8 7.0 6.6
6.1 5.5 5.3 5.2 5.2 5.0 4.9 4.9 5.1 5.3 5.4 5.5 5.4 5.7 6.0 6.1 6.0 5.8 6.2 6.6 6.3 6.2 6.6 6.9 6.5 6.2 6.3 5.7 5.3 5.8 5.7 5.3 5.2 5.7 5.6 6.1 6.1 6.3 6.4 6.5 6.4 6.6 6.4
5.5 5.4 5.3 5.5 5.6 5.5 5.4 5.2 5.0 5.0 5.1 5.3 5.4 5.4 5.5 5.7 6.0 6.0 6.1 6.2 6.5 6.5 6.2 6.4 6.7 6.2 5.7 5.8 5.8 5.9 5.8 6.3 5.6 5.9 6.5 6.0 5.9 6.2 6.0 6.1 6.1 6.3 6.1
Wind_Speed
1 5 13 13 13 15 16 17 20 19 19 18 16 15 15 15 15 15 15 14 14 14 13 13 12 13 14 14 15 15 16 16 15 15 14 13 13 12 13 16 16 14 13
11 9 11 13 13 14 15 14 17 18 17 18 18 16 14 13 14 14 13 12 11 12 12 12 13 14 14 14 14 15 16 15 15 15 14 13 13 12 13 17 22 18 18
10 10 11 12 13 14 14 13 15 15 16 17 17 17 15 13 12 12 11 10 10 11 11 11 12 13 13 13 14 15 15 13 14 14 12 12 12 14 16 18 22 20 22
11 10 12 13 13 13 14 14 13 14 14 15 16 16 15 15 13 12 12 11 11 11 11 10 10 11 13 13 14 15 12 13 14 11 12 10 12 16 16 18 20 19 21
8 10 12 13 13 13 14 14 13 14 14 14 14 16 15 14 13 14 13 13 11 10 10 10 9 9 12 12 13 14 11 9 9 10 11 12 12 14 16 16 18 16 12
7 10 17 16 14 13 13 14 15 14 14 14 13 14 14 14 13 12 11 10 10 9 9 9 9 9 10 11 11 11 11 7 5 7 14 13 9 13 15 15 15 18 16
7 8 9 20 17 13 12 13 14 15 15 14 13 12 13 13 12 13 12 10 9 8 10 9 8 9 10 10 10 9 7 5 7 9 8 13 13 17 17 13 13 15 14
10 10 11 14 16 15 12 11 12 14 15 14 13 13 13 13 12 12 11 11 11 11 12 10 11 11 11 11 10 9 8 5 8 10 10 11 16 17 16 14 12 12 13
5 7 8 10 13 14 13 11 11 12 13 15 14 13 13 13 13 13 12 12 11 11 10 10 11 11 10 10 11 10 9 7 9 8 10 14 16 17 16 15 13 14 17
7 3 4 6 7 9 10 11 11 11 13 15 16 15 14 13 13 14 14 13 12 12 12 11 11 10 9 9 10 12 10 7 10 10 11 13 17 16 16 17 17 17 17
16 16 11 7 4 7 8 9 10 10 10 12 13 14 13 12 13 14 15 15 15 14 13 12 13 13 12 11 12 13 12 11 12 10 12 18 17 16 17 18 18 19 19
19 19 18 14 8 5 5 10 10 8 8 8 8 10 10 13 13 13 16 18 17 17 15 14 14 14 13 11 11 12 11 11 12 12 14 21 17 17 17 18 18 18 19
13 16 19 17 23 20 15 11 5 9 10 10 10 8 8 10 12 11 11 12 13 16 11 14 14 12 12 11 10 11 10 11 11 11 14 23 19 20 19 19 18 18 18
18 17 17 18 16 21 20 16 13 7 6 7 12 13 8 5 6 7 6 10 11 11 9 11 9 12 12 14 12 10 10 11 11 12 17 25 22 20 20 21 20 19 19
18 17 17 18 18 19 14 17 15 12 7 7 10 13 13 6 5 5 6 9 10 11 10 7 7 7 7 10 11 9 7 11 12 12 15 26 25 23 21 22 22 20 20
15 16 16 18 21 22 13 16 12 16 19 13 10 13 17 13 7 6 5 7 7 12 12 10 6 8 8 7 9 10 8 12 13 14 15 19 27 24 23 23 24 22 21
12 13 17 17 23 17 14 17 17 18 20 14 15 14 15 18 13 10 6 7 7 14 13 10 7 7 6 6 10 9 8 12 13 13 16 16 20 27 26 24 22 23 22
13 16 15 14 17 16 15 16 16 17 17 17 19 22 21 17 18 8 8 8 11 11 9 8 8 7 8 7 7 8 8 7 11 15 16 17 17 18 24 26 23 23 24
16 18 18 16 17 14 16 18 16 18 14 17 18 19 23 23 17 8 9 9 10 8 8 9 8 10 9 9 8 6 7 8 11 12 12 17 20 19 19 24 27 25 24
15 15 16 13 16 15 12 12 11 11 13 17 16 16 24 22 25 16 11 11 9 7 9 8 11 11 10 11 10 8 7 7 6 9 13 14 17 20 21 19 21 22 27
14 14 15 15 16 12 12 12 11 12 13 12 15 21 24 21 22 16 11 14 11 12 14 12 11 12 11 10 4 3 5 8 6 8 9 10 11 16 17 19 18 18 20
10 11 13 14 14 11 9 8 5 9 8 11 14 20 21 23 24 16 14 13 14 14 15 15 14 11 10 9 10 2 4 4 8 7 7 9 11 10 11 16 18 20 19
11 11 11 10 10 10 12 9 9 6 7 8 13 13 15 23 21 21 15 14 15 13 14 16 16 18 13 11 16 5 2 6 3 3 9 9 10 9 10 10 17 20 22
8 6 6 9 10 9 11 9 13 8 11 10 12 13 16 23 19 21 18 15 15 12 15 17 14 16 14 13 6 8 3 2 3 3 2 12 11 12 12 10 11 15 20
8 7 6 7 9 10 11 10 10 13 10 11 11 16 19 16 19 20 18 18 18 13 15 18 16 15 12 16 12 4 6 5 3 9 16 6 4 8 7 8 10 9 17
4 4 4 5 8 9 11 11 13 13 15 13 14 12 11 14 14 16 17 18 17 15 17 15 17 18 19 13 10 11 12 8 10 5 2 2 8 4 7 8 9 9 14
Wind_Direction
85 169 152 132 127 127 128 128 130 130 127 121 114 108 103 101 99 99 99 100 102 103 102 101 103 98 98 100 104 107 107 108 100 104 106 103 98 97 93 89 79 79 85
137 143 145 130 127 128 130 135 135 135 133 129 125 117 111 111 109 105 104 105 107 106 106 106 103 109 106 107 110 116 112 104 104 104 102 101 101 101 100 99 92 89 85
120 131 133 133 126 132 137 144 141 141 138 135 131 128 127 121 116 112 109 113 112 112 117 114 113 116 116 118 123 122 112 107 111 102 100 97 99 105 107 110 110 99 91
135 135 136 140 135 139 142 147 148 144 145 143 139 137 137 134 133 128 122 122 124 125 127 121 124 126 127 131 136 135 114 122 131 118 125 116 115 119 125 122 108 114 108
137 139 141 145 143 143 148 150 152 152 152 153 150 148 145 144 147 146 140 137 137 138 143 134 134 137 134 142 144 140 128 132 154 141 144 133 139 140 136 120 113 113 117
135 148 156 155 154 149 153 156 157 159 162 162 164 157 153 154 154 153 145 141 140 140 140 134 141 144 140 146 145 142 135 140 122 127 149 143 142 147 139 139 129 123 118
132 150 181 162 160 158 160 162 165 168 169 172 172 169 164 163 162 160 157 157 158 161 148 143 150 156 148 146 135 133 133 148 131 129 140 152 155 146 142 151 140 129 134
153 154 168 173 167 166 170 168 173 177 177 177 178 176 176 173 171 169 167 166 166 172 158 161 163 163 162 156 143 140 142 164 148 165 149 162 168 149 151 151 143 141 140
129 141 160 173 177 175 171 172 181 188 188 183 183 183 183 180 178 176 177 177 173 168 167 172 173 174 177 163 149 149 158 173 209 170 164 171 169 153 158 157 157 151 144
21 42 149 173 177 175 178 184 191 199 202 198 186 185 187 189 186 185 185 187 182 178 179 180 181 185 188 175 161 161 165 174 187 177 170 174 171 158 161 162 159 152 147
32 18 351 326 195 179 185 193 199 210 223 220 204 188 187 192 196 196 196 193 189 187 188 187 185 189 192 189 179 176 171 180 173 175 174 180 177 169 168 167 164 159 157
28 23 20 -0 329 292 214 193 193 203 218 231 244 209 189 195 202 200 202 203 198 193 193 194 192 192 193 198 196 196 177 191 188 185 183 182 181 177 177 172 169 167 161
36 29 20 17 20 14 346 313 231 192 192 213 232 243 242 206 206 211 206 206 202 202 194 191 191 194 201 202 206 205 184 189 195 185 191 185 187 183 184 177 175 172 169
32 25 20 20 16 11 6 2 333 303 210 202 205 216 227 242 222 203 207 205 198 194 194 190 192 195 203 211 209 212 187 204 199 195 193 191 191 186 190 182 179 178 177
38 22 21 19 16 8 7 359 354 346 298 247 215 214 210 224 243 229 207 202 206 197 198 195 199 203 206 210 214 213 193 201 194 184 184 193 194 193 187 188 183 184 186
39 31 19 25 16 7 6 360 354 348 343 313 254 229 217 214 217 222 220 210 210 208 204 199 199 205 211 207 217 216 213 190 191 185 186 193 198 199 186 190 189 191 193
44 34 30 22 12 10 8 359 353 346 338 337 321 271 234 220 219 222 224 224 211 204 208 205 207 214 219 215 216 217 213 189 187 190 183 192 200 199 191 196 196 195 194
51 44 35 27 18 6 5 359 347 343 343 334 334 331 290 243 235 225 221 220 222 207 199 211 200 213 225 219 218 221 217 195 188 187 192 187 189 195 199 202 200 199 196
34 30 27 22 16 8 5 353 347 339 340 336 334 331 336 320 285 244 238 240 216 208 207 211 214 202 209 223 218 213 214 199 194 185 192 194 191 189 192 208 204 202 202
39 31 19 18 14 7 5 357 347 344 341 335 338 333 339 336 336 327 290 250 228 213 216 210 223 220 211 210 219 211 218 214 195 196 192 193 196 193 192 194 204 208 206
39 32 20 11 6 9 7 358 353 348 333 336 331 336 332 331 333 326 322 307 258 234 232 210 217 221 224 214 157 254 248 232 198 204 201 196 197 195 196 193 194 202 209
46 33 22 13 7 5 4 356 346 332 328 326 329 326 328 330 326 320 312 304 306 281 238 231 216 222 226 214 212 183 206 251 237 210 205 207 198 200 192 198 196 197 201
42 33 20 7 358 1 355 350 346 332 331 335 332 326 326 325 322 315 309 308 296 297 273 248 230 219 224 224 215 181 166 223 194 228 220 210 208 199 202 194 198 199 197
45 32 13 4 357 4 354 356 353 343 334 326 321 318 322 320 324 320 311 306 298 284 285 262 246 236 224 220 224 220 150 175 168 266 240 220 208 209 203 199 200 204 202
34 14 352 345 355 356 358 357 350 336 325 323 320 321 322 319 322 321 321 315 309 312 290 278 254 256 225 225 233 213 223 208 183 229 228 204 212 221 217 207 210 207 205
13 343 296 335 357 358 -0 348 344 339 330 329 328 321 320 318 317 320 318 315 303 295 289 285 256 237 255 231 208 216 222 213 210 211 193 173 209 211 224 225 226 210 208